PSLV R/B, 40720

Orbit data source: Space-Track

PSLV R/B, 40720 is space debris in SSO originally from a launch on Fri, 10 Jul 2015 UTC launched from the Sirharikota (SRI). Debris objects in space refer to the collection of defunct objects orbiting the Earth. Examples of debris include non-operational satellites, rocket bodies, and fragments generated from explosions, collisions, or faulty payload assembly.

Loading next visibility...
Identifier
40720, 2015-032F
Orbit
SSO
Country
Flag of ININ / IND
Related business
Manufacturer
VSSC/LPSC
Mission
Spacecraft
Bus & Motor
PS-4, Unknown motor
Mass
920 kg wet, 920 kg dry
Launch date (UTC)
2015-07-10 (11 years ago)
Launch vehicle
Unknown
Launch site
Sirharikota (SRI)
Object type
Payload
Rocket body
Debris
Shape & HBR
Cyl + Cyl + 2 Nozzle, 1.5 m
Radar Cross Section
3.727 m², Large (>1 m²)

Expand to show TLE details & history
Last TLE update: 15 hours ago

TLE from 15 hours ago
0 PSLV R/B
1 40720U 15032F   26145.34630416  .00000909  00000-0  10905-3 0  9995
2 40720  98.1910 114.7981 0004979 150.5578 209.5918 14.86607807587904
Epoch: 2026-05-25T08:18Z
TLE epoch observation values (Epoch: 2026-05-25T08:18:40.679Z)
Latitude
-0.00002°
Longitude
107.19319°
Altitude
614.591 km
Speed
7.55 km/s
True Right ascension
07h 39m 11s
True Declination
0° 00' 00"
Sunlit
Object was in daylight at epoch
Visualization orbit readout
Latitude
Unknown
Longitude
Unknown
Altitude
Unknown
Speed
Unknown
Apparent Right ascension
Unknown
Apparent Declination
Unknown
Sunlit
N/A
Visualization observer readout
Local Sidereal Time
08:18:01
Azimuth
Unknown
Elevation
Unknown
Doppler factor
Unknown
Orbital elements
Apogee altitude
609.066 km
Perigee altitude
602.112 km
Semi-major axis
6,983.726 km
Eccentricity
0.0005
Inclination
98.191°
RAAN
114.7981°
Arg. of periapsis
150.5578°
True anomaly
209.56364°
Mean anomaly
209.5918°
Eccentric anomaly
209.57772°
Mean motion
3.71888 °/min
Orbital period
96.8 mins
BSTAR
0.00010905
Loading maneuver chart data...
Computing Atmospheric mass density...
Loading historical data...
Loading historical data...
Loading historical data...
Loading historical data...
Loading historical data...
Loading historical data...
Loading historical data...
Other satellites on launch #32 in the year 2015 (2015-07-10 UTC)

Documentation

Showing up to 5 results
|